Flag for Germany

Past Weather in Reutlingen, Baden-Württemberg, Germany — Yesterday and Last 2 Weeks

Now
54 °F

Clear.


Feels Like: 54 °F
Forecast: 74 / 50 °F
Wind: 2 mph from Northwest

Location: Stuttgart-Echterdingen

Current Time: Jul 12, 2020 at 2:33:43 am

Latest Report: Jul 12, 2020 at 1:50 am


Visibility: 10 mi

Pressure: 30.27 "Hg

Humidity: 72%

Dew Point: 45 °F

Location of ReutlingenLocation

Past Weather in Reutlingen — Graph

°F

Reutlingen Temperature Yesterday

Maximum temperature yesterday: 72 °F (at 3:50 pm)
Minimum temperature yesterday: 57 °F (at 6:20 am)
Average temperature yesterday: 64 °F

High & Low Weather Summary for the Past Weeks

 TemperatureHumidityPressure
High86 °F (Jul 1, 3:50 pm)100% (Jun 27, 2:20 am)30.27 "Hg (Jun 27, 2:20 am)
Low48 °F (Jul 7, 4:50 am)31% (Jul 9, 4:20 pm)29.80 "Hg (Jul 1, 3:50 pm)
Average67 °F63%30.02 "Hg
* Reported Jun 27 1:20 am — Jul 12 1:20 am, Reutlingen. Weather by CustomWeather, © 2020

Note: Actual official high and low records may vary slightly from our data, if they occured in-between our weather recording intervals... More about our weather records

Reutlingen Weather History for the Previous 24 Hours

Scroll right to see more
 ConditionsComfort  
Time TempWeatherWind HumidityBarometerVisibility
1:20 am
Sun, Jul 12
54 °FPassing clouds.3 mph72%30.27 "HgN/A
12:50 am54 °FClear.3 mph72%30.27 "Hg10 mi
12:20 am55 °FClear.2 mph67%30.27 "Hg10 mi
11:50 pm
Sat, Jul 11
57 °FClear.1 mph63%30.27 "Hg10 mi
11:20 pm59 °FClear.2 mph55%30.27 "Hg10 mi
10:50 pm59 °FClear.6 mph55%30.27 "Hg10 mi
10:20 pm61 °FClear.6 mph52%30.27 "Hg10 mi
9:50 pm63 °FClear.6 mph45%30.24 "Hg10 mi
9:20 pm64 °FSunny.7 mph46%30.24 "Hg10 mi
8:50 pm66 °FPassing clouds.7 mph43%30.24 "HgN/A
8:20 pm68 °FPassing clouds.8 mph38%30.24 "HgN/A
7:50 pm70 °FPassing clouds.8 mph33%30.21 "HgN/A
7:20 pm70 °FPassing clouds.9 mph33%30.21 "HgN/A
6:50 pm70 °FSunny.9 mph33%30.21 "Hg10 mi
6:20 pm70 °FPassing clouds.10 mph33%30.21 "HgN/A
5:50 pm72 °FPassing clouds.12 mph33%30.21 "HgN/A
5:20 pm70 °FPassing clouds.10 mph33%30.21 "HgN/A
4:50 pm68 °FPassing clouds.9 mph38%30.21 "HgN/A
4:20 pm68 °FSunny.10 mph38%30.21 "Hg10 mi
3:50 pm72 °FPassing clouds.10 mph33%30.21 "HgN/A
3:20 pm70 °FSunny.8 mph38%30.21 "Hg10 mi
2:50 pm70 °FPassing clouds.9 mph38%30.21 "HgN/A
2:20 pm70 °FSunny.6 mph40%30.21 "Hg10 mi
1:50 pm70 °FScattered clouds.12 mph40%30.21 "HgN/A
1:20 pm66 °FScattered clouds.8 mph52%30.21 "HgN/A
12:50 pm66 °FScattered clouds.5 mph56%30.21 "HgN/A
12:20 pm64 °FScattered clouds.8 mph60%30.21 "HgN/A
11:50 am64 °FScattered clouds.7 mph64%30.21 "HgN/A
11:20 am64 °FScattered clouds.9 mph64%30.18 "HgN/A
10:50 am63 °FScattered clouds.7 mph68%30.18 "HgN/A
10:20 am61 °FScattered clouds.7 mph77%30.18 "HgN/A
9:50 am61 °FBroken clouds.6 mph83%30.18 "HgN/A
9:20 am59 °FBroken clouds.7 mph82%30.18 "HgN/A
8:50 am59 °FBroken clouds.7 mph82%30.18 "HgN/A
8:20 am59 °FBroken clouds.7 mph82%30.15 "HgN/A
7:50 am57 °FBroken clouds.9 mph88%30.15 "HgN/A
7:20 am57 °FBroken clouds.9 mph88%30.15 "HgN/A
6:50 am57 °FPartly sunny.9 mph94%30.12 "HgN/A
6:20 am57 °FPartly sunny.8 mph94%30.12 "HgN/A
5:50 am59 °FScattered showers. Broken clouds.9 mph88%30.12 "HgN/A
5:20 am59 °FScattered showers. Partly cloudy.6 mph88%30.09 "HgN/A
4:50 am59 °FPartly cloudy.6 mph94%30.09 "HgN/A
4:20 am59 °FLight rain. Passing clouds.6 mph94%30.09 "HgN/A
3:50 am61 °FLight rain. Passing clouds.5 mph88%30.09 "HgN/A
3:20 am59 °FPassing clouds.5 mph94%30.09 "HgN/A
2:50 am61 °FLight rain. Clear.1 mph83%30.09 "HgN/A
2:20 am61 °FLight rain. Passing clouds.6 mph83%30.09 "HgN/A
Weather by CustomWeather, © 2020

See weather overview